Location: Großmugl Leeberg
(48.4883°N, 16.2231°E)
Time: 22:48:10
(UTC+02:00)

ISS - Visible Passes

Search period start: 18 October 2019 00:00
Search period end: 27 October 2019 23:00
Orbit: 411 x 421 km, 51.6° (Epoch: 19 October)

Date Brightness Start Highest point End Pass type
(mag) Time Alt. Az. Time Alt. Az. Time Alt. Az.
22 Oct -0.1 06:53:02 10° SE 06:53:30 10° SE 06:53:58 10° SE visible
24 Oct -1.3 06:49:57 10° SSW 06:52:41 23° SE 06:55:24 10° E visible
25 Oct -0.9 06:02:14 10° S 06:04:16 15° SE 06:06:18 10° E visible
26 Oct -2.8 06:48:43 10° SW 06:51:59 49° SSE 06:55:15 10° ENE visible
27 Oct -2.2 05:00:52 13° SSW 05:03:28 32° SE 05:06:31 10° E visible
